sat.trackr.live / text

‹ back to catalog

STARLINK-33655

NORAD 63424 · 2025-065AB

PAYLOAD ACTIVE UNKNOWN

§ Identity

Operator
Country
US
Launch date
2025-03-31
Launch site
AFETR
Launch vehicle
Mass (kg)
RCS (m²)

Purposes: comms

External: N2YO · Heavens-Above · Gunter

§ Orbital elements

Epoch: 2026-09-20T15:51:26.424864Z

Period
94.27 min
Inclination
42.9996°
Eccentricity
0.0001220
Mean motion
15.27594064 rev/d
Perigee alt
482.2 km
Apogee alt
483.8 km
Semi-major
6,861.1 km
B*
7.0271e-4
RAAN
86.3082°
Arg perigee
273.1770°
Mean anomaly
86.8942°
Rev number
8,265

§ Raw data

STARLINK-336551 63424U 25065AB  26263.66072251  .00019133  00000+0  70271-3 0  99912 63424  42.9996  86.3082 0001220 273.1770  86.8942 15.27594064 82650

JSON: /api/v1/satellites/63424 · /tle

For live sub-satellite position, see the globe view (requires WebGL).

§ Visibility from observer

Set your observer location to see the next 7 days of passes ≥ 10°. The values pass through the URL so the page stays shareable.

No JS? Fill the form by hand. The geolocation button needs JavaScript.